CZ-6A DEB

Satellite information

Favourite Embed

Satellite Type and Status

DEBRISIN ORBIT

Key statistics

Satellite CZ-6A DEB at a glance.

Uptime

1129

Days in orbit

Revolutions

≈ 14.0

Per day

Orbit

SSO

Sun Synchronous Orbit

Inclination

98.9

Latest

Satellite identification and parameters

Extended collection of information and parameters for CZ-6A DEB.

Object identification

Identified? True

Debris? True

Object name: CZ-6A DEB

International designator: 2022-151AEX

Object number (NORAD): 56623

Object ID (CCSDS): 56623

Country: PEOPLES REPUBLIC OF CHINA (PRC)

Current information (Y/N): Y

RCS size: SMALL

Orbital parameters

Period: 102.909 minutes

Inclination: 98.8781 deg

SMA: 7274.397 km

Apoapsis: 971.354 km

Periapsis: 821.171 km

RAAN: 322.4655 deg

Eccentricy: 0.01032272

Argument of periapsis: 196.6718 deg

Mean anomaly: 163.1044 deg

Mean motion: 13.99288454 rev/day

Mean motion (dot): 0.00000901 rev/day2

B* drag term: 0.00062081604 1/REarth

Two-line elements (TLE)

Creation date: Dec. 11, 2025, 3:54 a.m.

Reference frame: TEME

Reference center: EARTH

Epoch: Dec. 10, 2025, 4:45 p.m. UTC

TLE line 0: 0 CZ-6A DEB

TLE line 1: 1 56623U 22151AEX 25344.69803591 .00000901 00000-0 62082-3 0 9993

TLE line 2: 2 56623 98.8781 322.4655 0103227 196.6718 163.1044 13.99288454134870

Live tracking on map

Real-time ground track for satellite CZ-6A DEB.

In-orbit conjunctions

A list of the most updated potential collisions computed for object CZ-6A DEB.

Target Orbit TCA Probability of collision Miss distance Type
FENGYUN 1C DEB SSO 2025-10-11 13:48:50 0.0001122668 222.0 (m) DEBRIS
GGSE 2 LEO 2025-05-26 03:42:35 0.0001896021 241.0 (m) PAYLOAD
SL-3 R/B LEO 2025-02-28 09:00:39 0.0002979251 236.0 (m) ROCKET BODY

Associated space launch

Chinese satellite reported for atmospheric/ocean/environmental/spatial parameter research purposes, details TBD.

CZ-6A DEB was lifted into orbit during the mission ‘Long March 6A | Yunhai 3’, on board a Long March 6A space rocket.

The launch took place on Nov. 11, 2022, 10:52 p.m. from Launch Complex 9A.

For more information about the launch, click the button.

Launch to space Long March 6A | Yunhai 3
Long March 6A | Yunhai 3

Agency: N/A

Status: Launch Successful

Launch date: Nov. 11, 2022, 10:52 p.m. UTC

Rocket: Long March 6A

Launch pad: Launch Complex 9A

Location: Taiyuan Satellite Launch Center, People's Republic of China

...

Latest news about this satellite

There are no fresh news available about this satellite. Check back as we update our databases every day.


Newsletter sign-up

Weekly statistics, charts and insights to help you stay on top of the space industry.